ヒル彗星

211P/Hill (2016)

English version
Home page
Updated on August 10, 2016

---------------------------------------------------------------------

・ プロフィール

・ 写真集

・ 軌道要素

Epoch 2016 Jan. 13.0 TT = JDT 2457400.5
T 2016 Jan. 27.33317 TT                                 MPCW
q   2.3505209            (2000.0)            P               Q
n   0.14683144     Peri.    4.43446     -0.52182210     -0.80306268
a   3.5584156      Node   117.26897     +0.77236916     -0.58797090
e   0.3394473      Incl.   18.88753     +0.36214304     +0.09685325
P   6.71
From 294 observations 2003 Mar. 24-2015 Nov. 21, mean residual 0".8.
     Nongravitational parameters A1 = -4.22, A2 = -0.1593.

・ 星図

・ 光度変化

        m1 = 8.8 + 5 logΔ + 20.0 log r

---------------------------------------------------------------------

軌道要素はM.P.E.C. 2015-W63に掲載されたものです。
星図はステラナビゲータ Ver.8 (アストロアーツ) で作成したものです。
光度グラフはComet for Windowsで作成したものです。

---------------------------------------------------------------------

Copyright(C) Seiichi Yoshida (comet@aerith.net). All rights reserved.